Wind_Speed
38 39 40 41 42 41 42 42 43 42 41 40 39 39 37 35 35 32 29 27 25 22 18 16 13 10 9 9 9 9 11 15 20 25 30 33 38 42 44 46 46 47 49 51 55 58 59 60 60 60 60 58 55 53 52 50 48 46 43 41 34 27 24 24 26 27 32 35 28 25 24 22 20 19 18 21 22 22 23 23 22 22 21 21 20 20 19 20
37 39 40 41 42 42 42 41 41 42 41 38 37 37 35 33 33 30 26 24 22 19 16 14 12 10 8 7 7 8 10 13 17 22 27 32 37 41 44 45 45 47 49 52 56 57 58 60 61 61 59 57 56 54 51 49 48 46 42 41 33 25 26 25 26 29 32 34 29 26 23 22 21 19 18 20 21 22 23 23 22 21 20 20 19 19 19 20
37 38 40 41 42 42 41 40 41 42 40 36 35 35 33 31 31 27 24 22 20 17 14 12 10 8 6 5 6 8 10 13 16 21 26 31 36 40 42 44 45 47 49 54 56 57 59 61 61 61 58 56 56 52 50 49 47 46 41 39 34 26 27 29 29 31 31 30 28 26 22 20 20 17 19 20 21 22 22 22 22 20 19 19 19 18 19 19
36 38 40 42 42 42 41 41 42 41 37 34 33 33 31 29 29 25 22 20 18 15 13 10 7 4 3 3 5 7 10 13 17 22 27 31 35 38 40 43 45 48 51 55 55 57 61 62 62 59 57 57 56 53 52 50 46 43 39 37 34 26 26 30 32 34 33 28 27 27 23 21 20 18 19 21 22 22 22 22 22 20 19 19 18 18 19 19
36 37 40 42 42 41 41 41 41 40 35 32 31 31 29 27 26 23 20 18 16 14 12 10 6 3 1 1 3 6 10 14 19 24 28 31 34 36 39 42 45 48 52 55 55 58 61 63 62 59 58 57 55 53 51 47 43 39 37 36 32 28 30 33 36 37 33 28 26 26 24 23 22 20 21 21 23 23 22 22 21 20 20 19 18 18 19 20
35 37 40 41 40 40 40 40 40 37 34 31 30 30 28 25 24 21 18 17 16 14 12 11 8 5 3 2 2 4 8 11 16 23 28 31 32 35 38 41 45 48 51 54 55 59 61 62 60 57 56 56 54 52 49 44 41 36 33 38 34 30 31 34 37 34 30 29 27 26 24 23 23 21 22 23 24 23 23 22 20 20 20 19 17 18 19 20
34 37 40 40 39 38 39 38 38 36 33 30 29 29 27 24 21 19 18 17 16 15 13 11 9 6 4 3 2 2 5 8 12 19 26 29 30 34 36 41 44 46 49 51 54 59 62 62 59 55 54 55 53 49 48 42 37 31 29 37 37 30 32 36 34 28 28 30 27 25 24 23 22 22 23 24 24 24 22 21 20 19 18 17 17 18 19 19
33 37 39 39 38 37 37 37 38 36 32 29 29 28 26 22 19 18 17 17 16 16 14 12 10 8 7 4 3 2 4 7 12 18 24 27 29 33 36 40 42 44 48 51 55 59 60 60 56 55 53 53 50 43 42 40 36 35 32 34 32 31 36 34 28 27 29 28 26 26 24 23 23 23 24 24 24 23 21 20 19 18 17 17 17 18 18 18
33 36 38 38 37 36 35 36 38 36 32 29 28 28 25 21 18 17 16 17 16 16 15 13 11 10 8 6 4 2 5 8 13 18 22 26 28 32 35 38 40 44 49 51 55 58 58 58 53 53 53 50 48 39 33 30 33 38 35 33 33 34 35 27 25 28 28 27 27 27 25 24 25 25 25 24 24 22 21 19 18 18 17 17 17 18 18 17
32 35 37 37 36 36 34 35 37 36 32 29 27 27 24 20 18 17 16 16 16 15 15 13 12 10 8 6 4 2 7 11 15 18 21 25 27 31 34 36 40 44 48 50 55 58 57 55 51 53 52 48 48 41 35 31 34 40 36 34 35 34 31 25 28 29 27 27 27 26 26 26 26 26 25 24 23 21 20 19 18 17 17 17 17 18 17 16
31 33 35 36 36 35 34 35 36 35 31 28 26 25 22 19 18 17 16 16 16 15 15 14 13 11 9 7 5 5 11 13 15 18 20 23 25 30 33 36 41 44 47 49 54 58 56 51 49 53 51 48 49 44 40 38 36 38 34 33 35 32 29 29 29 29 28 27 25 25 26 26 26 26 24 24 22 20 19 17 17 17 16 17 17 17 16 16
29 32 33 34 34 33 33 34 34 33 30 27 25 23 21 19 18 17 16 16 17 16 16 14 13 11 10 8 6 9 13 13 15 17 20 23 26 30 33 37 41 43 46 49 53 56 53 49 50 53 50 48 48 43 41 37 32 32 30 30 33 31 30 30 29 29 28 25 23 23 24 26 26 25 23 23 20 18 17 16 16 17 16 17 17 16 16 15
28 30 31 32 32 32 32 32 32 31 30 27 24 22 20 18 18 17 16 17 17 17 16 15 13 11 12 10 9 12 15 14 14 16 19 22 26 31 34 38 41 41 44 49 54 53 45 45 50 52 48 43 43 40 38 34 30 31 29 28 29 28 29 29 28 28 24 22 22 22 24 25 24 23 22 21 19 17 17 16 17 17 17 17 17 16 16 15
26 28 30 30 31 31 30 31 31 30 29 27 25 22 19 18 18 17 17 17 17 17 16 15 12 12 15 14 13 15 16 15 15 17 19 22 26 30 33 38 40 39 41 47 52 49 40 43 47 47 43 38 37 36 35 32 28 29 28 27 27 27 28 28 26 24 22 23 22 22 24 23 21 20 20 19 18 17 17 16 17 17 17 17 16 16 15 15
24 26 28 28 29 29 29 30 30 30 29 27 26 23 20 17 17 17 17 17 17 17 17 15 13 14 17 16 15 16 16 16 16 17 19 22 26 30 32 37 39 36 38 46 52 46 40 44 46 42 41 39 37 35 34 31 27 29 27 25 27 27 27 26 24 22 21 22 21 21 23 22 19 18 18 17 16 16 16 16 17 17 17 17 16 15 15 15
23 24 26 26 27 28 27 28 29 29 29 27 26 24 21 17 16 17 17 17 17 17 17 18 17 16 16 16 16 16 15 16 15 16 19 21 25 29 31 34 34 32 35 44 48 39 35 41 42 40 39 36 33 31 32 31 27 26 26 25 25 25 23 21 20 21 21 19 18 20 21 19 17 17 17 16 16 16 16 16 16 16 17 16 15 15 15 15
21 22 24 24 25 26 26 26 27 28 28 26 24 22 21 18 16 18 18 17 18 19 19 20 20 17 17 17 15 15 15 15 15 16 18 20 24 28 31 31 29 28 32 41 42 33 31 35 35 35 33 28 26 25 27 29 26 21 22 24 23 21 20 17 15 17 18 18 18 20 21 18 16 16 16 15 16 16 16 16 15 15 16 15 15 15 15 15
20 20 22 22 23 24 24 25 26 27 26 25 23 20 20 18 16 17 18 18 17 19 20 20 19 17 17 16 15 15 15 15 16 17 17 19 23 27 30 28 24 26 34 41 37 29 32 34 31 32 31 26 24 21 19 23 23 17 16 20 21 20 20 18 16 16 17 18 18 19 19 18 16 17 15 15 16 16 16 16 15 15 15 14 15 15 15 15
18 19 20 21 21 22 23 25 27 27 26 24 22 20 18 17 17 17 18 20 19 19 19 20 20 19 17 15 14 14 15 16 17 18 19 19 21 24 26 23 20 25 35 37 30 26 31 31 27 27 27 23 20 17 16 17 17 15 15 19 21 20 19 19 18 16 16 17 17 17 18 17 16 16 15 15 16 16 16 16 15 15 14 14 15 15 15 14
17 17 18 18 19 19 22 25 26 26 24 22 22 22 18 16 17 18 18 21 22 21 20 20 21 19 17 15 15 15 15 17 17 18 20 20 21 23 23 21 22 27 32 30 25 24 27 26 23 22 22 20 18 17 17 17 16 15 16 20 21 19 17 20 19 16 14 15 16 16 17 17 16 16 15 15 16 16 15 15 15 15 14 14 15 15 14 13
15 15 16 17 17 17 20 24 26 25 23 20 21 22 19 17 18 18 17 19 22 22 21 22 21 19 18 17 17 16 15 16 17 18 21 23 23 22 21 22 26 28 26 25 24 22 24 24 23 22 20 19 20 19 16 15 16 16 16 17 18 17 14 15 17 18 16 14 15 16 16 16 16 16 16 17 17 16 16 15 15 14 14 14 14 14 13 12
14 14 14 15 15 16 19 23 25 25 21 18 19 19 18 19 19 18 16 19 23 23 22 23 22 20 19 19 18 17 15 14 15 17 21 22 20 18 19 21 25 25 22 23 22 21 21 20 20 20 19 18 21 20 15 14 16 14 14 14 13 14 14 13 13 13 14 13 14 14 15 16 16 14 16 18 17 16 15 14 14 14 13 13 13 13 12 12
14 13 12 13 14 15 18 22 24 25 21 16 17 17 17 17 17 16 15 20 22 22 22 21 20 19 18 18 17 16 15 13 15 18 19 18 16 18 19 20 24 23 21 22 21 19 17 15 17 17 15 16 18 18 13 14 14 10 10 12 11 12 14 15 14 11 11 12 12 13 14 15 15 14 15 16 15 15 15 14 13 13 14 14 13 12 12 11
13 13 11 11 12 13 17 20 23 24 21 16 16 16 16 16 17 16 15 19 21 20 21 19 17 16 15 15 13 13 14 14 17 18 16 15 16 19 19 20 25 22 20 21 20 19 16 13 15 15 13 14 15 15 12 13 12 9 7 8 10 12 14 14 14 13 12 12 12 14 15 15 15 15 14 15 15 15 15 15 14 14 15 14 13 13 12 11
12 12 11 10 10 12 15 18 21 23 20 17 17 16 15 15 16 16 15 18 18 17 18 17 15 15 14 14 11 10 13 16 18 15 14 14 16 20 20 21 23 20 19 18 16 16 14 11 13 13 12 12 12 12 12 12 9 8 10 7 5 9 11 12 13 12 12 13 13 14 15 15 16 16 14 15 16 16 17 16 15 15 14 14 13 13 12 12
11 11 11 9 9 10 12 15 19 21 20 17 16 16 15 14 15 15 14 16 16 14 15 15 15 15 12 12 10 9 10 15 16 12 13 16 18 21 21 20 21 19 18 16 13 14 12 11 13 13 13 12 12 13 13 13 10 8 13 9 3 5 8 10 12 12 11 12 12 13 14 16 17 16 14 15 16 17 18 16 15 15 14 13 13 13 13 12
10 10 10 8 7 8 10 13 15 17 19 19 17 14 13 12 13 14 12 13 13 12 13 13 14 15 13 11 8 6 8 12 12 14 20 21 21 22 19 20 22 19 17 16 15 16 14 14 14 13 13 11 10 12 12 13 9 7 13 11 5 5 7 7 9 11 11 10 9 11 14 16 16 15 14 14 15 16 17 16 16 15 14 13 12 12 13 13
10 9 9 7 5 6 7 11 13 15 17 18 17 16 13 11 11 11 11 11 11 10 12 13 14 14 12 11 9 8 11 13 14 20 24 22 21 21 21 20 19 17 18 18 18 17 16 16 15 12 13 11 8 9 11 10 7 7 12 12 7 7 7 7 9 11 10 9 9 11 14 14 13 13 12 12 13 14 14 15 15 14 13 13 11 11 12 12
10 9 8 7 4 4 5 8 11 13 14 15 15 15 14 13 11 10 9 9 10 9 10 12 13 11 10 12 14 14 18 20 21 23 22 21 20 19 18 17 17 18 18 17 14 13 13 14 13 12 12 11 6 7 10 8 6 9 10 8 6 7 9 9 9 8 8 8 8 10 11 10 11 11 8 9 11 12 14 15 14 13 14 13 11 10 10 10
10 9 8 7 5 2 3 5 8 11 12 12 12 11 11 12 12 11 9 7 8 9 9 11 12 10 8 11 15 15 19 22 23 23 22 21 18 17 19 19 20 18 16 15 13 11 13 13 11 10 10 9 6 8 12 9 9 10 8 7 8 9 10 9 7 7 8 7 7 8 9 9 10 9 7 7 8 10 13 13 11 12 13 11 10 10 9 9
11 9 8 7 5 3 1 2 4 7 9 10 9 10 10 10 10 12 12 8 7 8 9 11 12 10 8 10 13 15 19 22 21 22 20 15 13 18 21 21 19 13 11 13 12 12 13 10 9 7 6 8 8 11 13 10 11 12 9 9 10 9 8 7 6 5 4 3 6 8 9 9 7 6 6 5 5 7 8 8 8 10 11 10 8 8 9 9
12 10 8 7 6 4 3 1 1 3 6 8 8 9 10 9 9 10 11 9 6 7 9 10 11 10 8 10 11 13 16 18 18 18 16 10 13 21 22 20 17 11 9 11 12 14 12 8 7 6 3 5 8 11 11 10 11 12 11 10 7 7 7 5 4 3 3 3 5 7 9 8 5 5 6 6 6 6 6 5 6 8 9 9 8 8 8 8
14 11 9 8 7 6 5 3 2 1 4 6 7 8 8 8 7 8 10 11 7 6 10 10 10 10 10 10 10 10 11 12 12 14 14 12 17 22 20 17 14 9 9 10 9 11 11 8 7 5 2 3 6 9 10 9 9 8 8 8 6 5 5 3 2 3 2 3 5 6 6 7 6 6 6 5 3 2 4 4 5 5 7 8 8 9 8 8
15 13 10 9 9 8 7 6 4 2 2 4 5 6 7 7 6 5 8 11 9 6 10 9 9 10 10 9 8 8 9 9 11 13 13 14 18 19 16 13 11 9 8 7 6 8 9 8 8 4 2 2 3 4 5 2 4 5 5 6 7 3 2 0 3 3 4 5 6 5 4 5 6 5 4 4 2 3 5 4 4 5 6 7 8 9 9 8
16 14 12 11 10 10 9 7 6 4 2 3 3 4 7 8 6 4 6 10 11 7 9 10 10 8 7 8 8 7 8 9 12 13 13 16 17 13 11 9 7 6 4 5 4 6 5 6 8 5 1 1 2 2 2 2 3 2 3 5 6 2 2 1 3 4 5 5 4 3 4 7 8 6 3 4 5 6 6 4 4 4 5 6 7 8 8 7
16 15 14 12 12 11 10 9 8 6 4 3 4 4 6 7 7 5 4 7 10 9 9 10 10 7 6 8 9 9 10 13 13 14 17 19 14 9 8 6 3 2 3 7 5 3 2 2 5 5 2 2 2 2 2 2 3 3 4 5 4 1 1 2 2 3 3 4 3 3 5 6 6 6 4 3 6 6 6 5 4 4 4 5 6 6 7 7
16 17 15 14 13 12 11 10 9 7 5 3 4 4 3 4 5 3 1 3 6 8 9 9 9 7 8 11 13 12 13 15 15 16 19 17 11 9 9 5 1 1 3 6 6 2 2 2 1 1 2 1 2 2 2 2 0 3 4 4 3 2 1 2 2 2 4 5 5 5 5 5 4 4 5 4 4 6 9 10 8 5 3 3 4 5 7 8
16 17 18 16 15 15 13 11 10 9 6 4 2 3 3 3 4 3 2 3 5 7 9 8 8 10 12 13 14 15 16 15 15 16 15 10 7 9 8 5 3 2 2 1 4 1 1 2 2 2 1 1 2 2 4 2 1 5 6 4 4 2 1 2 1 1 3 5 6 5 4 5 5 5 5 5 3 4 9 11 10 9 7 4 4 4 5 8
16 18 20 18 16 16 15 13 12 10 8 7 4 4 4 2 2 1 2 4 6 8 5 4 8 12 14 14 13 15 18 16 15 15 12 8 8 8 8 7 6 5 5 3 1 3 2 1 1 1 1 3 3 3 5 4 1 4 7 7 7 4 3 2 1 1 3 5 5 5 4 4 3 4 5 5 3 4 8 11 10 11 10 6 6 5 4 6
16 19 22 20 17 18 17 15 13 12 11 9 7 5 4 2 2 3 5 7 9 8 5 6 11 12 13 15 14 15 17 16 14 13 10 7 8 9 9 9 8 6 7 6 5 5 4 4 4 3 3 5 5 2 3 3 1 3 6 6 5 4 3 4 4 5 4 5 4 4 5 4 1 2 4 4 3 5 8 9 10 13 12 9 7 7 6 8
17 20 22 20 19 19 18 16 14 13 12 10 8 7 6 5 4 5 8 10 10 8 6 10 13 11 11 15 16 16 17 15 13 12 11 9 9 10 9 8 9 9 8 8 8 8 6 6 7 5 5 6 5 3 3 3 3 4 5 4 3 5 5 5 6 5 4 5 6 6 6 3 3 5 5 5 6 7 7 7 7 10 11 11 11 10 9 10
18 20 21 21 21 19 18 17 15 15 14 11 9 8 7 7 7 8 9 10 11 9 7 9 11 10 11 15 14 14 14 13 12 12 11 10 11 11 10 10 12 11 9 10 11 9 6 7 8 5 4 6 6 5 5 5 4 5 5 3 3 4 5 5 6 6 5 6 7 9 10 7 7 9 7 7 9 9 9 8 7 10 10 10 11 12 12 12
19 20 20 21 22 21 20 18 16 16 15 13 12 10 8 10 12 12 10 9 12 12 9 10 11 10 11 13 11 11 13 12 11 11 10 12 12 11 12 13 14 13 12 12 10 8 7 9 10 8 6 7 7 7 6 5 5 6 5 6 7 8 6 6 7 7 7 8 8 9 12 11 10 10 10 12 12 11 13 11 9 12 12 10 11 12 12 12
19 20 20 21 22 22 21 18 18 18 16 16 17 14 11 13 16 14 10 9 11 11 10 12 14 11 11 13 13 13 13 12 11 10 9 11 13 12 14 14 14 16 15 12 10 9 10 10 10 10 9 7 6 8 7 5 5 5 3 5 9 9 8 7 6 5 6 9 9 10 12 12 10 10 10 11 11 10 12 12 11 12 12 12 14 14 11 11
19 20 20 21 24 24 21 19 19 20 19 19 18 16 15 16 17 16 11 9 11 10 10 13 14 14 14 15 17 16 14 13 13 11 10 12 12 13 15 15 16 18 16 13 13 14 12 11 11 11 11 8 6 7 7 5 4 3 0 4 8 7 8 9 7 6 7 8 8 10 12 13 13 12 9 11 12 10 10 12 12 14 16 15 15 14 10 11
19 19 19 20 23 23 22 21 20 19 20 20 18 17 18 19 18 16 13 12 12 10 10 12 13 15 16 14 16 17 16 16 16 15 15 15 12 12 14 15 17 18 16 15 17 17 15 14 14 13 12 10 8 8 7 5 6 4 1 3 6 7 8 9 7 7 8 8 9 11 11 11 12 13 12 13 14 11 10 12 14 18 21 18 15 15 15 13
19 20 20 20 21 22 23 24 21 20 21 20 19 19 19 20 19 18 16 15 14 12 12 12 12 14 16 16 16 17 17 16 16 16 16 15 14 13 13 15 17 18 17 18 18 17 16 15 16 14 12 11 11 11 10 8 7 6 4 4 6 8 9 9 9 9 8 7 10 11 9 10 12 14 13 13 13 12 12 15 16 16 18 16 15 18 19 16
21 22 22 21 22 24 26 25 23 23 22 20 19 20 20 21 21 19 18 17 15 14 13 12 11 13 17 19 19 19 18 16 14 15 14 13 14 14 13 16 18 18 18 18 16 14 15 16 17 16 14 13 13 13 12 10 8 7 6 8 9 9 9 8 9 11 10 8 10 11 11 12 13 14 14 13 13 13 14 16 17 15 14 15 17 19 19 18
24 23 21 20 22 23 24 25 24 24 23 22 21 20 20 22 22 20 19 18 15 14 14 13 12 12 15 17 17 18 19 17 15 15 14 13 14 15 15 17 19 18 18 19 16 13 15 18 19 17 15 15 14 14 13 11 10 11 11 10 9 9 8 6 7 12 13 10 11 13 14 14 14 14 16 16 14 13 15 17 18 18 17 19 20 20 18 18
23 22 21 21 21 22 23 26 27 26 24 24 23 20 20 22 22 21 21 19 17 15 15 14 13 13 12 11 10 12 15 15 14 14 13 12 13 14 16 18 20 19 18 17 17 17 17 19 20 19 15 14 14 14 14 14 14 14 14 13 11 11 13 12 13 15 15 13 13 15 15 15 15 15 17 18 16 16 18 19 19 19 18 18 19 19 18 17
22 23 23 22 21 22 24 27 29 27 26 25 23 20 21 23 23 23 21 20 19 18 16 15 14 12 11 10 8 8 10 12 11 11 10 9 9 11 14 16 18 18 16 15 17 19 20 18 19 19 15 13 14 15 16 17 15 14 15 16 15 14 14 16 17 17 16 15 14 15 15 15 15 16 18 18 18 18 19 19 19 19 17 16 17 19 19 18
21 23 23 21 20 22 25 27 28 27 27 26 23 21 22 23 25 24 22 21 21 19 18 16 14 13 12 10 9 7 8 9 9 8 7 6 6 8 10 13 14 16 15 14 16 18 19 18 18 18 15 13 14 16 17 16 14 16 19 18 15 15 15 16 17 17 17 16 15 16 15 14 15 17 18 19 18 18 18 18 18 18 18 17 17 18 20 21
Wind_Direction
333 334 334 334 334 333 332 333 332 330 328 328 329 331 331 332 331 328 327 323 318 316 312 305 295 284 273 262 251 237 226 217 211 205 200 196 192 188 186 187 187 186 188 191 194 193 192 195 197 197 196 193 192 193 194 195 199 202 207 209 205 207 210 212 215 218 232 235 239 243 241 242 239 239 246 249 253 254 257 258 260 265 270 277 282 287 292 296
335 336 336 337 337 336 336 336 335 333 332 331 331 333 333 335 335 332 332 328 322 317 312 304 294 285 272 255 235 218 210 205 202 199 195 191 189 186 185 186 185 186 187 189 193 192 191 195 196 197 195 191 191 193 194 195 199 201 204 211 208 211 215 214 220 223 232 235 236 242 241 239 238 238 242 248 254 256 259 262 264 268 271 276 282 287 292 295
338 338 339 340 340 339 339 339 338 337 336 334 334 336 336 339 339 338 338 333 326 321 316 309 298 287 268 241 216 203 197 194 193 192 189 186 186 185 185 185 185 185 186 189 192 190 189 194 196 198 193 188 190 190 193 194 199 203 202 208 208 212 220 215 221 230 233 234 233 237 241 240 239 240 243 250 255 257 261 265 268 272 274 277 282 287 291 295
339 340 341 342 342 342 342 341 340 340 339 338 338 339 340 343 343 344 345 341 336 333 331 327 313 298 271 217 201 193 189 188 185 186 184 182 183 184 185 185 185 185 187 189 190 188 189 193 196 197 189 186 191 189 193 195 196 203 205 208 206 209 224 218 220 230 232 233 234 236 241 242 245 249 251 254 257 260 264 269 273 275 277 279 283 287 291 295
342 343 343 344 344 344 344 342 342 344 344 343 342 343 344 346 348 351 354 353 351 351 353 355 4 19 12 177 184 187 188 187 183 182 181 181 182 184 186 185 185 186 188 189 188 188 190 193 195 194 187 186 191 189 191 196 195 198 205 212 209 207 219 219 219 226 232 237 239 239 242 246 251 255 257 259 262 265 267 272 276 278 279 282 285 288 291 295
343 345 345 346 347 346 345 344 345 349 349 348 347 348 348 349 352 357 3 6 4 6 10 15 23 34 44 99 151 185 191 189 186 181 178 180 182 183 186 186 186 187 189 189 186 188 191 193 195 192 185 186 190 189 187 190 192 194 203 212 212 208 213 219 221 225 234 240 243 246 247 249 254 257 259 262 263 266 268 272 276 278 280 282 285 287 291 294
346 347 347 348 349 347 346 346 351 354 354 352 352 352 351 351 356 2 12 16 15 16 19 22 22 26 40 71 112 153 181 179 181 179 175 178 181 183 185 185 186 186 188 189 186 188 191 192 193 188 184 187 189 189 187 183 184 191 203 212 215 216 218 222 221 226 238 240 243 249 249 250 254 258 259 260 262 266 269 272 275 277 280 282 284 287 289 294
348 349 349 350 350 349 348 351 357 359 357 356 356 355 353 352 359 7 18 24 24 24 26 27 24 25 29 36 70 116 167 170 170 174 175 177 180 181 183 184 184 184 185 187 188 188 189 191 193 186 184 188 186 184 184 182 185 192 202 209 210 215 222 223 219 225 235 239 243 247 249 252 255 257 258 259 262 265 268 271 273 275 278 281 283 286 289 295
349 351 351 352 352 352 352 356 0 1 360 359 359 358 355 355 3 11 22 29 31 32 33 32 29 29 26 27 35 118 159 163 164 168 173 175 177 178 181 181 181 183 184 186 189 188 188 191 189 183 184 187 182 174 168 174 191 197 202 204 203 210 219 220 217 222 229 234 240 244 248 251 254 257 258 260 261 264 268 269 272 274 277 280 282 286 290 295
351 353 352 354 355 354 355 359 2 2 1 1 2 1 358 1 8 16 26 33 35 37 38 36 33 31 29 31 19 98 134 146 158 163 168 170 173 175 176 178 178 181 184 186 189 188 188 191 188 182 184 185 182 175 165 171 191 199 204 207 210 218 222 220 218 222 227 232 238 241 246 250 253 256 257 259 261 264 267 268 271 272 275 278 281 286 291 294
353 354 354 355 356 357 358 2 4 4 3 3 5 5 3 8 14 20 28 35 39 39 40 39 36 31 25 27 32 103 124 137 151 157 162 165 168 171 172 175 178 180 184 187 188 188 187 190 189 185 185 186 186 184 179 181 190 197 205 211 215 219 220 220 220 222 225 229 234 238 244 248 251 254 256 259 262 265 267 267 269 270 273 277 281 286 290 290
354 356 356 357 358 359 1 5 6 5 5 5 8 9 9 15 20 24 30 37 40 38 37 38 37 36 28 31 65 109 120 130 145 151 156 160 164 167 170 175 178 180 184 188 188 188 188 189 188 187 188 189 189 188 186 188 191 195 202 210 213 214 216 218 220 223 225 227 231 237 242 246 249 253 256 259 262 265 266 266 266 269 273 277 281 285 287 287
355 357 358 358 359 1 4 8 9 8 7 7 10 12 13 20 24 27 31 37 41 41 38 35 36 43 47 59 91 109 113 121 134 144 152 159 163 167 170 174 179 183 186 188 186 185 189 191 188 187 190 191 190 187 187 192 195 197 203 208 209 212 216 218 221 224 228 231 234 237 242 245 249 254 257 260 262 263 264 264 266 269 274 277 281 284 285 283
355 358 360 0 0 3 7 10 11 10 10 10 12 13 16 24 28 29 32 38 45 48 45 38 39 55 69 78 95 104 108 117 127 139 150 158 163 167 170 175 181 185 187 187 185 186 189 189 190 190 188 191 194 190 190 197 201 202 207 209 208 214 220 221 223 226 229 234 235 236 241 245 248 252 256 258 258 259 260 261 265 269 274 277 280 282 282 278
354 359 1 2 3 6 8 11 13 13 13 15 16 15 16 25 33 34 34 39 47 54 56 53 51 63 76 82 91 100 105 113 126 138 149 158 162 167 172 178 182 184 188 185 184 189 190 185 189 191 189 194 199 197 198 200 203 209 212 208 208 216 221 223 225 226 228 232 236 238 242 246 246 248 251 252 252 253 256 260 264 269 274 278 280 280 278 273
353 359 2 4 7 8 10 12 13 15 15 17 20 21 20 24 38 44 44 46 52 57 60 63 64 68 75 81 90 99 106 114 127 141 149 157 163 168 174 178 182 187 190 185 184 190 190 186 188 191 193 197 199 203 205 200 200 210 213 210 212 216 221 226 229 229 231 235 239 242 244 245 245 246 246 246 248 251 255 260 264 270 274 277 278 275 272 269
350 359 3 5 9 11 14 14 14 16 16 18 20 26 27 28 39 50 53 55 57 59 62 67 72 74 78 83 92 98 106 116 125 137 148 157 163 168 173 177 183 190 189 186 188 191 187 188 192 193 194 195 197 205 208 205 204 206 205 212 221 221 223 232 234 233 235 238 241 244 247 247 245 244 242 242 247 251 256 260 263 268 271 272 272 269 267 265
347 357 3 6 11 13 17 19 18 17 17 18 20 28 33 33 41 50 54 53 49 53 62 69 72 73 76 82 94 100 106 115 123 132 142 154 164 169 173 178 184 187 184 184 189 190 185 188 191 191 193 196 199 204 209 212 216 218 210 216 225 225 228 237 239 237 236 235 237 243 247 249 248 246 243 243 248 254 259 262 263 265 267 266 266 264 262 259
344 354 4 7 12 16 18 19 17 15 17 20 22 29 34 36 41 48 55 56 52 55 63 71 72 73 74 81 96 103 107 115 124 134 141 149 161 169 173 180 185 181 179 182 187 186 184 188 188 188 192 193 194 198 203 208 215 221 221 221 223 227 230 229 229 229 230 232 234 239 244 246 248 247 247 248 251 256 260 263 263 262 263 262 261 259 256 254
342 350 3 7 12 17 18 17 14 11 13 18 25 28 28 36 44 49 59 63 62 64 67 72 74 76 80 86 98 105 110 119 126 135 143 150 159 168 175 180 179 175 176 182 190 187 184 184 183 186 188 184 187 191 194 201 202 203 215 220 217 221 224 222 225 226 225 231 233 237 240 242 244 246 248 250 253 256 257 259 258 257 258 257 257 255 252 249
339 346 1 7 11 15 15 16 14 11 11 16 25 28 28 41 49 51 62 69 67 67 69 73 76 80 86 90 97 102 110 122 131 141 150 157 164 169 173 173 171 171 176 186 190 184 180 178 176 180 184 186 189 186 182 191 193 192 204 214 217 222 224 224 224 216 215 225 230 238 242 241 242 244 248 250 251 253 252 253 254 254 256 255 254 251 247 244
335 341 358 8 11 13 15 17 16 14 14 19 27 32 33 43 51 50 61 73 71 70 73 77 80 84 86 89 96 101 106 120 134 146 155 162 166 164 165 170 171 172 178 183 178 168 171 177 175 177 184 187 186 183 179 181 187 197 208 213 223 230 227 231 228 209 212 225 229 236 242 245 248 244 245 247 248 249 249 251 253 254 255 251 248 248 243 240
330 336 353 8 13 16 20 20 19 18 18 24 33 36 36 42 52 51 57 70 70 70 73 75 81 84 82 87 96 104 109 125 139 148 157 162 157 154 159 164 164 166 169 169 163 158 170 180 175 180 187 183 184 192 193 189 199 217 219 218 227 233 232 240 250 243 232 235 236 240 244 251 256 249 245 248 249 250 251 251 251 252 251 247 245 244 240 237
324 330 345 7 15 20 25 23 23 24 22 31 39 39 39 42 49 49 53 67 70 71 73 74 79 80 80 83 93 114 121 135 147 150 157 158 152 154 157 154 151 152 157 161 161 164 180 186 178 190 198 189 192 200 197 193 212 226 209 218 234 238 240 238 245 250 241 236 238 245 251 257 261 257 254 255 253 251 251 250 247 247 247 245 243 242 238 235
317 323 336 2 18 25 30 26 27 29 28 36 43 39 39 42 51 55 55 65 72 73 75 77 76 77 79 80 94 125 130 142 152 150 149 152 156 156 152 148 147 145 147 154 160 168 183 186 180 189 189 185 190 193 188 181 197 212 194 199 218 215 226 230 233 241 242 242 242 246 253 257 261 264 261 255 251 247 245 245 246 245 244 240 239 240 238 233
310 316 326 350 18 29 34 31 29 31 31 37 43 40 38 38 48 57 55 61 68 70 74 76 75 78 77 80 98 120 133 151 157 149 142 142 147 151 150 145 137 133 141 151 156 162 171 171 170 171 166 169 176 179 184 175 167 184 189 199 228 190 203 225 232 238 243 246 248 253 255 254 255 260 259 252 249 246 243 242 243 242 241 238 236 239 241 235
300 307 316 336 12 29 37 38 31 30 34 38 40 40 42 40 47 58 60 65 69 72 78 78 81 86 84 87 102 123 151 166 163 149 144 138 135 140 144 138 128 123 133 144 147 146 149 154 154 155 158 163 171 176 186 183 174 179 186 197 237 225 217 231 228 232 242 246 249 250 249 248 248 252 256 254 248 245 241 238 238 238 240 241 236 237 242 239
289 296 305 318 353 22 37 43 36 32 35 40 40 39 42 43 49 57 57 66 75 79 83 85 90 90 84 78 72 95 131 142 144 143 142 138 136 138 138 138 134 125 125 134 141 142 143 151 155 159 165 163 161 173 180 182 191 197 185 186 210 227 237 253 236 226 236 247 254 251 249 252 249 246 252 258 257 251 241 235 235 236 240 244 240 234 235 237
278 284 292 302 327 9 32 42 40 35 35 39 40 40 43 43 46 53 54 67 78 80 86 93 99 93 77 67 65 91 118 122 127 135 136 134 136 139 139 141 141 133 129 134 142 146 152 159 164 169 173 168 158 166 168 168 187 193 181 175 204 229 233 245 250 253 264 266 267 268 266 265 259 251 254 266 265 250 238 234 233 237 243 245 243 233 228 230
267 272 278 285 297 328 19 41 44 37 33 32 33 35 37 35 39 49 57 74 84 92 104 106 108 104 85 74 75 97 122 127 128 133 136 135 135 141 141 138 137 134 133 137 143 156 165 164 161 161 168 177 185 167 162 174 190 184 176 185 215 236 243 254 270 285 290 276 271 276 268 264 270 275 277 267 251 233 232 235 233 240 245 242 240 235 229 227
258 262 265 268 275 281 298 38 44 38 28 20 22 29 28 28 38 47 53 71 94 112 125 119 112 108 101 95 91 99 119 130 133 135 138 137 138 146 144 136 131 123 120 132 150 169 168 151 146 158 165 173 181 168 162 180 192 184 186 200 216 234 248 270 274 273 300 282 275 284 271 260 265 282 298 300 274 240 233 238 235 239 241 234 235 236 232 227
252 253 253 255 258 257 249 243 33 27 19 11 16 27 33 43 55 54 51 58 84 126 147 138 124 117 114 113 109 105 114 126 135 141 143 138 141 147 146 139 132 123 124 143 162 167 153 131 141 171 182 159 167 170 175 191 194 188 193 200 214 226 229 257 273 273 320 307 282 295 293 287 288 293 306 323 313 277 245 226 219 228 233 229 227 226 227 227
248 247 245 245 245 244 243 235 241 327 1 2 13 26 30 38 45 52 58 52 62 139 163 155 140 134 127 123 121 115 114 121 133 143 141 134 143 148 144 142 140 131 131 148 163 151 135 142 168 175 170 163 169 174 181 197 208 205 201 208 231 230 212 235 253 246 312 321 304 321 328 317 316 316 310 312 324 292 254 233 209 213 227 230 227 223 224 225
243 243 240 239 240 238 237 233 240 261 316 341 4 18 10 8 9 29 70 63 59 130 164 161 148 139 132 133 136 126 122 129 135 139 135 131 142 145 136 138 150 142 120 120 148 144 134 158 174 165 162 163 165 175 167 189 248 225 207 240 270 267 139 325 276 285 346 344 328 339 345 317 309 312 304 301 288 216 231 240 214 213 231 241 239 233 229 224
240 240 237 234 236 236 234 232 238 248 263 314 345 5 6 19 32 35 72 71 65 99 150 158 152 147 142 143 145 137 137 146 143 139 137 133 136 137 128 136 171 178 118 70 122 156 160 173 159 137 149 176 148 181 204 326 327 260 236 286 303 327 80 7 321 322 333 333 334 338 320 315 320 317 290 268 261 244 236 223 198 205 237 255 254 249 247 241
236 236 236 233 233 234 234 230 233 244 257 291 313 337 6 30 49 47 53 66 72 91 128 149 147 148 157 148 141 138 140 145 144 141 140 136 131 132 135 144 185 198 63 53 81 138 155 166 148 128 131 192 178 180 215 273 336 335 318 315 317 308 227 262 337 345 327 326 338 338 321 325 337 334 322 282 275 285 287 271 239 214 230 259 272 276 276 269
236 232 234 234 230 231 233 231 229 238 248 266 301 317 348 21 27 28 71 95 93 102 121 142 147 144 151 147 139 136 135 135 138 143 144 140 134 137 144 148 119 55 37 50 65 61 27 50 68 109 116 176 216 215 222 182 170 296 316 330 311 302 301 294 308 311 313 319 327 338 335 339 354 347 353 346 310 309 303 293 288 282 271 268 273 277 280 278
237 230 233 232 228 229 230 231 229 232 239 239 256 298 310 351 2 8 121 134 136 130 118 127 149 149 148 147 143 143 142 138 142 152 151 145 150 147 139 131 115 148 258 7 81 117 246 56 41 19 59 201 230 255 259 232 189 263 277 296 296 296 7 354 331 308 312 311 325 348 348 349 354 337 353 13 345 306 297 290 292 295 295 295 279 273 277 280
239 230 232 230 227 229 229 229 231 231 238 238 230 267 301 320 344 346 179 194 188 168 142 140 159 153 150 149 146 147 148 146 155 165 157 143 155 150 136 137 142 166 205 221 179 182 189 145 121 49 94 225 244 259 258 253 248 279 274 275 278 283 301 307 256 266 302 297 318 356 331 316 330 310 335 5 359 319 303 294 299 299 293 291 283 277 270 270
242 232 230 227 225 228 228 228 230 233 236 241 243 259 287 272 226 228 220 218 214 204 203 188 167 157 158 160 156 152 152 149 155 168 169 166 170 155 150 157 156 174 202 213 226 220 199 200 220 234 221 230 249 253 258 273 278 279 282 271 262 263 278 287 263 259 288 294 313 359 324 298 310 292 311 326 306 306 299 294 299 295 292 294 285 273 270 267
245 237 231 229 228 228 229 227 228 235 236 240 254 254 247 240 232 234 226 225 234 227 191 174 170 165 167 170 166 163 163 161 159 171 180 184 183 169 169 179 171 180 203 209 224 230 209 207 226 240 242 241 239 219 242 271 256 262 289 283 251 242 250 271 277 275 287 281 281 307 306 323 14 324 306 299 288 287 287 284 283 287 295 301 293 287 285 277
245 240 233 230 229 228 229 227 226 233 232 231 249 248 229 234 243 239 230 228 232 221 194 183 182 175 169 171 171 171 178 175 167 176 179 171 176 178 179 192 194 197 205 210 226 233 218 219 224 223 248 257 246 228 224 229 241 259 270 265 266 270 260 257 262 266 274 270 268 281 286 295 314 304 297 298 289 286 290 287 286 290 287 285 285 286 285 280
245 242 234 228 228 227 227 226 224 229 229 230 243 243 225 229 235 236 237 235 221 212 221 218 199 190 183 180 184 188 192 188 174 181 183 165 168 186 190 196 207 216 216 217 228 232 227 232 228 226 241 240 229 228 221 210 232 252 250 250 265 276 272 257 257 261 268 273 269 269 278 290 303 299 294 292 290 300 306 298 294 288 273 270 283 279 276 281
247 243 236 228 227 227 226 225 223 224 223 227 237 238 231 232 237 240 247 248 229 216 222 220 207 205 200 189 196 201 197 195 185 185 194 180 174 191 198 197 207 219 222 220 218 218 226 232 232 240 251 247 238 242 238 229 246 260 261 257 263 272 273 268 273 270 268 275 275 270 274 278 284 289 293 291 287 297 305 301 297 290 279 286 290 275 273 290
248 246 241 230 225 224 223 223 224 222 219 223 230 231 232 236 240 246 249 246 243 234 225 218 208 206 206 197 196 197 191 195 198 196 208 208 196 196 199 200 212 224 226 223 219 222 230 235 235 241 249 259 263 245 231 230 255 273 246 249 259 266 270 276 289 291 285 286 281 278 281 279 276 277 285 297 298 297 300 297 296 295 290 289 284 275 287 307
247 246 244 233 224 220 221 224 227 227 225 227 229 228 232 238 241 245 249 243 243 242 230 225 219 216 220 211 198 197 197 199 203 204 207 212 210 205 207 212 220 227 228 225 226 228 231 236 242 245 246 253 254 241 238 256 273 271 238 257 268 264 263 276 294 295 294 296 287 281 287 290 286 280 278 285 291 296 294 284 284 293 296 293 292 292 298 306
245 242 241 235 227 220 219 222 225 229 229 230 232 228 230 240 241 242 248 246 246 245 233 231 234 231 230 223 208 209 211 208 211 216 217 224 228 225 224 224 225 231 234 231 232 234 235 240 246 248 246 247 250 252 257 262 261 256 248 251 261 266 271 280 290 286 280 283 284 285 292 290 284 283 283 283 285 288 284 277 279 292 298 295 295 297 297 298
242 239 235 231 228 222 219 218 220 225 224 223 228 225 224 236 240 238 241 242 244 245 238 234 239 233 225 222 218 218 217 216 222 226 226 232 238 237 236 234 234 239 243 244 245 243 243 245 247 249 246 241 241 246 252 253 244 242 247 245 253 272 283 293 299 285 270 267 275 279 285 281 275 279 285 287 287 286 283 282 284 290 291 284 282 287 290 290
243 243 236 230 228 224 220 219 222 224 221 221 226 224 222 232 239 238 240 242 241 244 243 237 237 233 224 223 228 228 224 224 229 234 233 233 237 240 242 244 246 245 246 252 256 251 248 251 253 255 253 247 244 242 244 242 230 231 243 248 259 272 265 266 285 276 270 275 276 271 273 276 279 284 285 284 285 283 283 285 287 288 289 288 290 293 291 291
243 242 238 233 229 223 219 219 222 226 225 226 229 225 221 231 238 237 239 243 242 243 246 242 242 245 238 234 245 244 235 231 230 236 242 239 238 243 245 248 253 252 249 255 260 255 251 253 256 257 256 255 254 247 240 233 225 229 239 242 245 249 244 249 265 266 266 274 275 272 276 281 283 283 282 283 285 282 282 287 290 293 294 293 297 301 298 297
241 237 235 234 229 224 220 218 220 224 225 226 228 227 225 230 237 238 238 242 243 243 245 243 244 252 252 247 251 252 248 241 228 225 239 246 249 253 253 252 255 256 255 256 258 255 253 254 257 257 254 250 249 243 238 238 234 233 239 240 240 243 244 253 264 266 265 269 273 277 283 288 287 281 278 281 284 283 284 287 289 291 291 287 290 295 292 289
241 238 237 235 229 225 222 220 220 221 222 224 228 231 229 229 236 240 239 242 243 243 245 243 238 244 251 251 250 246 246 245 232 221 231 246 251 254 257 258 258 258 257 257 257 255 254 256 255 253 250 246 244 242 241 240 234 232 239 245 250 255 258 262 269 274 276 278 283 285 286 288 288 283 280 283 290 291 288 286 284 282 279 276 275 277 281 285
Height
5762 5758 5754 5750 5745 5741 5736 5730 5725 5720 5715 5710 5705 5700 5696 5691 5687 5682 5677 5673 5670 5667 5664 5661 5659 5658 5656 5656 5655 5656 5657 5659 5661 5665 5669 5674 5679 5685 5691 5696 5702 5708 5714 5721 5728 5734 5741 5747 5752 5757 5762 5768 5775 5780 5785 5790 5793 5798 5802 5805 5810 5814 5816 5817 5818 5818 5816 5816 5818 5821 5822 5823 5824 5824 5825 5827 5828 5829 5829 5830 5831 5831 5831 5831 5831 5831 5831 5831
5760 5756 5752 5748 5743 5738 5733 5728 5723 5718 5712 5707 5703 5698 5694 5690 5685 5681 5676 5672 5669 5666 5663 5661 5659 5657 5656 5656 5656 5656 5658 5659 5662 5665 5670 5675 5680 5685 5690 5696 5701 5707 5713 5719 5726 5732 5740 5745 5750 5755 5761 5767 5773 5778 5784 5788 5791 5796 5800 5805 5810 5812 5814 5815 5814 5814 5813 5814 5817 5819 5820 5822 5823 5823 5824 5826 5827 5828 5828 5828 5829 5830 5830 5830 5830 5829 5829 5829
5759 5755 5751 5746 5741 5736 5731 5726 5721 5715 5710 5705 5701 5697 5693 5689 5685 5680 5676 5672 5669 5666 5663 5661 5659 5658 5657 5656 5656 5657 5659 5660 5663 5666 5670 5674 5679 5685 5690 5695 5701 5706 5712 5718 5723 5730 5737 5743 5748 5753 5760 5767 5772 5777 5782 5786 5790 5795 5799 5803 5807 5810 5811 5813 5812 5810 5811 5813 5816 5817 5819 5821 5822 5822 5823 5825 5826 5826 5826 5827 5828 5828 5828 5829 5828 5828 5828 5827
5758 5754 5749 5744 5739 5734 5729 5724 5719 5714 5708 5704 5700 5696 5692 5689 5684 5680 5676 5672 5669 5666 5664 5661 5660 5659 5658 5657 5657 5658 5660 5662 5664 5667 5671 5675 5679 5685 5690 5695 5700 5706 5711 5716 5722 5727 5733 5740 5747 5753 5759 5765 5770 5774 5779 5784 5789 5795 5799 5802 5805 5808 5809 5810 5810 5808 5809 5812 5815 5816 5818 5819 5820 5820 5822 5823 5824 5824 5825 5825 5826 5826 5826 5827 5827 5826 5826 5825
5757 5753 5748 5743 5738 5733 5728 5723 5718 5712 5707 5703 5699 5696 5692 5688 5685 5681 5677 5673 5671 5668 5665 5663 5661 5660 5660 5659 5659 5660 5661 5663 5665 5668 5672 5676 5680 5685 5691 5696 5700 5705 5710 5715 5721 5726 5732 5738 5745 5751 5757 5764 5769 5773 5779 5785 5789 5794 5799 5801 5804 5806 5805 5806 5807 5807 5809 5812 5813 5815 5816 5818 5818 5819 5820 5822 5822 5823 5823 5823 5824 5824 5825 5825 5825 5824 5824 5823
5756 5752 5747 5742 5737 5732 5727 5722 5717 5712 5707 5703 5699 5696 5692 5689 5685 5681 5678 5675 5672 5670 5667 5665 5663 5662 5662 5661 5661 5662 5663 5665 5667 5669 5672 5676 5681 5686 5691 5696 5701 5706 5711 5715 5720 5726 5732 5738 5744 5751 5759 5764 5768 5773 5779 5785 5789 5793 5797 5799 5801 5803 5802 5803 5804 5807 5810 5810 5811 5813 5815 5816 5817 5818 5819 5820 5821 5821 5822 5822 5823 5823 5823 5823 5823 5823 5822 5822
5755 5751 5746 5742 5737 5732 5727 5722 5716 5711 5707 5703 5699 5696 5692 5689 5686 5683 5679 5676 5674 5671 5669 5667 5666 5665 5664 5664 5664 5664 5665 5667 5669 5672 5674 5678 5682 5687 5692 5696 5702 5707 5712 5717 5723 5726 5732 5739 5745 5752 5759 5764 5769 5775 5778 5783 5788 5791 5794 5796 5799 5801 5801 5800 5803 5808 5808 5808 5811 5812 5813 5814 5815 5816 5818 5818 5819 5820 5820 5821 5821 5821 5821 5821 5821 5821 5820 5819
5755 5751 5746 5741 5737 5732 5727 5722 5717 5712 5707 5704 5700 5696 5693 5690 5687 5684 5681 5678 5675 5673 5671 5670 5669 5668 5667 5667 5667 5667 5668 5670 5672 5674 5676 5680 5684 5688 5693 5698 5703 5708 5712 5717 5721 5725 5733 5741 5746 5753 5759 5763 5769 5775 5778 5782 5786 5788 5790 5794 5797 5799 5797 5798 5804 5807 5806 5808 5810 5810 5812 5812 5813 5815 5816 5817 5818 5818 5819 5819 5819 5819 5819 5819 5819 5819 5818 5817
5755 5750 5746 5741 5737 5732 5727 5722 5717 5713 5709 5705 5701 5697 5694 5691 5689 5686 5682 5680 5677 5675 5673 5672 5672 5671 5670 5670 5670 5670 5670 5672 5674 5676 5679 5682 5686 5690 5695 5699 5704 5708 5712 5717 5721 5728 5736 5740 5747 5755 5760 5764 5768 5770 5775 5781 5785 5787 5789 5791 5793 5794 5795 5800 5804 5804 5805 5807 5808 5809 5811 5811 5812 5813 5814 5815 5816 5816 5817 5817 5817 5817 5817 5817 5817 5817 5816 5816
5754 5750 5746 5742 5737 5733 5728 5723 5718 5714 5710 5706 5702 5699 5696 5693 5690 5687 5684 5682 5680 5678 5676 5675 5674 5674 5673 5672 5673 5673 5673 5674 5676 5679 5682 5685 5689 5693 5696 5701 5705 5710 5715 5719 5724 5731 5738 5743 5749 5754 5758 5764 5766 5767 5771 5777 5781 5784 5787 5790 5791 5793 5796 5800 5801 5803 5804 5805 5806 5808 5809 5809 5810 5811 5813 5813 5814 5815 5815 5815 5815 5816 5816 5815 5815 5815 5815 5814
5754 5750 5746 5742 5738 5733 5729 5724 5719 5715 5711 5708 5704 5700 5698 5695 5692 5689 5687 5684 5682 5680 5679 5677 5677 5676 5676 5675 5675 5675 5675 5677 5680 5683 5685 5688 5692 5695 5699 5703 5707 5712 5717 5721 5726 5733 5739 5745 5751 5754 5757 5762 5766 5768 5771 5774 5778 5782 5786 5789 5790 5793 5796 5797 5799 5801 5802 5804 5805 5806 5807 5808 5809 5810 5811 5811 5812 5813 5813 5813 5813 5814 5814 5814 5813 5813 5813 5812
5754 5750 5747 5743 5739 5734 5730 5725 5720 5716 5713 5709 5706 5702 5699 5696 5694 5692 5689 5687 5684 5683 5681 5680 5679 5679 5678 5677 5678 5679 5679 5681 5684 5686 5689 5691 5695 5698 5702 5706 5710 5714 5718 5722 5728 5735 5741 5745 5750 5754 5757 5762 5767 5771 5773 5776 5778 5781 5785 5787 5788 5791 5794 5795 5797 5799 5800 5802 5803 5804 5805 5806 5807 5808 5809 5810 5811 5811 5811 5811 5811 5812 5812 5812 5812 5811 5811 5810
5754 5750 5747 5744 5739 5735 5731 5726 5722 5718 5714 5711 5708 5705 5702 5699 5696 5694 5692 5689 5687 5685 5684 5683 5682 5682 5681 5681 5682 5682 5683 5685 5687 5689 5692 5695 5698 5701 5705 5709 5713 5716 5719 5724 5730 5737 5743 5747 5749 5753 5758 5764 5768 5771 5774 5776 5778 5781 5783 5784 5787 5790 5792 5793 5795 5796 5798 5800 5801 5802 5803 5804 5806 5807 5808 5808 5809 5809 5809 5809 5810 5810 5810 5810 5810 5809 5809 5809
5754 5751 5748 5744 5741 5736 5732 5728 5723 5720 5717 5713 5710 5707 5704 5701 5698 5696 5694 5692 5689 5688 5686 5686 5686 5685 5683 5684 5685 5686 5687 5688 5691 5693 5695 5698 5701 5705 5708 5711 5715 5719 5722 5727 5734 5739 5743 5747 5751 5756 5761 5765 5768 5771 5774 5776 5779 5780 5781 5783 5787 5789 5790 5792 5793 5795 5797 5798 5799 5801 5801 5802 5804 5805 5806 5806 5807 5807 5807 5808 5808 5808 5807 5807 5807 5807 5807 5807
5755 5752 5748 5745 5742 5738 5734 5730 5725 5722 5719 5716 5713 5710 5707 5703 5701 5699 5697 5695 5693 5690 5689 5689 5689 5688 5687 5688 5688 5689 5691 5692 5694 5697 5699 5702 5705 5708 5711 5714 5718 5722 5725 5729 5734 5739 5742 5746 5751 5758 5763 5764 5768 5771 5772 5775 5779 5780 5782 5784 5786 5788 5789 5790 5792 5794 5796 5797 5798 5799 5799 5800 5802 5802 5803 5804 5805 5805 5805 5806 5806 5806 5805 5805 5806 5805 5805 5806
5755 5752 5749 5746 5743 5739 5735 5731 5727 5724 5722 5718 5715 5712 5709 5706 5703 5701 5699 5698 5696 5694 5692 5692 5691 5691 5691 5691 5692 5693 5695 5696 5698 5700 5703 5705 5708 5711 5715 5719 5722 5725 5728 5733 5738 5742 5747 5750 5754 5759 5763 5765 5769 5772 5773 5776 5779 5781 5783 5785 5786 5787 5789 5790 5792 5793 5795 5796 5797 5797 5797 5798 5800 5801 5801 5802 5803 5803 5803 5804 5804 5803 5803 5803 5804 5804 5804 5804
5756 5753 5750 5747 5744 5741 5737 5733 5730 5727 5724 5721 5718 5714 5711 5708 5706 5704 5702 5701 5700 5697 5696 5695 5694 5695 5695 5695 5696 5697 5698 5700 5702 5704 5706 5709 5712 5715 5718 5723 5726 5728 5732 5737 5741 5745 5749 5753 5757 5761 5765 5768 5771 5772 5774 5777 5779 5781 5783 5784 5785 5786 5789 5791 5792 5792 5793 5795 5796 5796 5796 5797 5798 5799 5800 5800 5801 5801 5801 5801 5801 5801 5801 5802 5802 5802 5802 5802
5756 5753 5751 5748 5745 5742 5739 5736 5732 5729 5726 5723 5720 5717 5714 5711 5709 5707 5705 5704 5703 5701 5699 5698 5698 5699 5699 5700 5700 5701 5702 5704 5706 5708 5710 5713 5716 5719 5722 5725 5728 5730 5734 5738 5742 5746 5750 5753 5756 5761 5765 5768 5770 5772 5775 5777 5779 5781 5782 5784 5784 5785 5788 5790 5790 5791 5792 5794 5795 5794 5794 5795 5797 5797 5798 5799 5799 5799 5799 5799 5800 5800 5800 5800 5800 5801 5800 5801
5756 5754 5751 5749 5746 5744 5741 5737 5734 5731 5728 5726 5723 5720 5718 5714 5712 5710 5708 5707 5706 5704 5703 5702 5702 5702 5703 5704 5704 5705 5706 5707 5709 5711 5713 5716 5719 5723 5726 5728 5730 5732 5736 5740 5744 5747 5751 5755 5758 5761 5765 5768 5771 5773 5776 5777 5779 5780 5781 5782 5783 5785 5786 5788 5788 5789 5790 5791 5793 5793 5793 5794 5795 5796 5797 5797 5797 5797 5797 5797 5798 5798 5798 5798 5798 5799 5799 5799
5756 5754 5752 5750 5747 5745 5742 5739 5736 5733 5730 5728 5725 5723 5720 5718 5715 5713 5711 5710 5708 5707 5707 5706 5705 5706 5707 5708 5708 5709 5710 5711 5713 5715 5716 5719 5722 5725 5728 5730 5732 5735 5739 5743 5746 5748 5752 5757 5760 5762 5765 5768 5771 5773 5775 5775 5776 5778 5779 5779 5781 5783 5785 5786 5786 5787 5788 5790 5791 5792 5792 5793 5793 5794 5795 5795 5795 5795 5795 5795 5795 5795 5796 5796 5797 5797 5797 5798
5756 5755 5753 5750 5748 5746 5744 5740 5737 5734 5731 5729 5727 5725 5723 5720 5718 5716 5715 5713 5711 5710 5710 5709 5709 5710 5711 5712 5712 5713 5714 5715 5716 5718 5720 5722 5724 5727 5730 5732 5735 5739 5742 5745 5748 5750 5754 5758 5760 5762 5766 5768 5769 5771 5773 5773 5774 5776 5777 5778 5781 5782 5784 5786 5785 5786 5787 5789 5790 5790 5790 5791 5791 5792 5793 5794 5794 5794 5793 5793 5793 5794 5794 5795 5795 5795 5796 5796
5756 5755 5753 5751 5749 5747 5745 5742 5738 5736 5733 5731 5729 5727 5725 5723 5721 5720 5719 5717 5714 5714 5713 5713 5714 5715 5715 5715 5715 5716 5718 5719 5720 5722 5724 5726 5728 5730 5732 5735 5738 5741 5744 5747 5750 5752 5756 5759 5760 5763 5766 5768 5769 5770 5771 5772 5774 5776 5776 5777 5779 5781 5783 5785 5784 5785 5786 5787 5788 5788 5788 5788 5789 5791 5792 5792 5792 5792 5792 5792 5792 5793 5793 5794 5794 5794 5795 5795
5756 5755 5754 5752 5750 5748 5746 5743 5740 5737 5735 5733 5731 5730 5728 5726 5724 5723 5723 5719 5717 5717 5717 5718 5718 5719 5719 5718 5718 5719 5720 5722 5724 5725 5727 5729 5731 5733 5735 5737 5740 5744 5746 5748 5752 5755 5758 5760 5761 5763 5766 5768 5769 5770 5772 5773 5774 5775 5776 5777 5778 5780 5781 5782 5782 5783 5785 5786 5786 5786 5786 5785 5786 5789 5789 5790 5791 5791 5791 5791 5791 5791 5792 5792 5793 5793 5793 5794
5756 5754 5754 5752 5751 5749 5747 5744 5741 5738 5736 5735 5733 5732 5730 5728 5726 5725 5725 5722 5721 5721 5721 5722 5723 5722 5722 5722 5722 5723 5723 5725 5727 5728 5730 5732 5733 5735 5737 5740 5742 5745 5747 5750 5753 5756 5758 5761 5763 5764 5766 5768 5769 5770 5771 5772 5773 5774 5776 5778 5779 5780 5781 5781 5781 5782 5783 5785 5785 5784 5784 5785 5785 5786 5787 5788 5789 5789 5790 5790 5790 5790 5790 5791 5791 5791 5792 5792
5755 5754 5754 5753 5751 5750 5748 5746 5742 5740 5738 5737 5735 5734 5732 5731 5729 5727 5727 5725 5725 5725 5725 5725 5725 5725 5725 5725 5726 5727 5727 5728 5730 5731 5732 5734 5735 5737 5740 5742 5743 5746 5749 5752 5755 5757 5758 5760 5763 5765 5766 5768 5769 5770 5771 5772 5774 5775 5777 5779 5779 5779 5780 5781 5781 5782 5783 5783 5784 5784 5784 5784 5784 5784 5786 5787 5787 5788 5788 5788 5788 5789 5789 5790 5790 5790 5791 5791
5755 5754 5753 5753 5752 5750 5749 5747 5744 5742 5741 5739 5737 5736 5734 5733 5731 5730 5730 5729 5729 5729 5728 5728 5728 5728 5729 5729 5729 5730 5730 5732 5732 5733 5735 5736 5738 5740 5742 5744 5746 5749 5752 5754 5757 5758 5760 5761 5763 5765 5766 5768 5769 5771 5772 5773 5775 5777 5778 5779 5779 5779 5780 5781 5781 5781 5782 5782 5783 5783 5784 5783 5783 5784 5785 5785 5786 5786 5787 5787 5787 5787 5788 5788 5788 5789 5789 5789
5755 5754 5753 5753 5752 5751 5750 5748 5746 5744 5742 5740 5739 5738 5737 5736 5734 5733 5733 5733 5733 5733 5732 5732 5732 5732 5732 5732 5732 5732 5733 5734 5734 5735 5737 5739 5741 5743 5745 5747 5749 5751 5753 5755 5757 5759 5761 5763 5765 5766 5767 5769 5771 5772 5773 5774 5775 5777 5778 5779 5778 5778 5780 5781 5780 5779 5779 5781 5782 5782 5782 5782 5783 5783 5784 5784 5784 5785 5785 5786 5785 5786 5786 5786 5787 5788 5788 5788
5755 5754 5753 5753 5752 5751 5750 5749 5747 5745 5743 5742 5741 5740 5739 5738 5737 5736 5735 5735 5736 5736 5735 5735 5735 5735 5735 5735 5735 5734 5734 5735 5736 5738 5740 5742 5744 5745 5747 5750 5752 5753 5755 5756 5758 5760 5762 5763 5765 5767 5768 5770 5771 5772 5773 5774 5775 5776 5777 5778 5778 5778 5778 5777 5777 5777 5778 5780 5781 5781 5781 5781 5782 5782 5782 5782 5782 5782 5783 5784 5784 5785 5785 5785 5786 5786 5787 5787
5754 5754 5753 5753 5752 5752 5750 5749 5748 5747 5745 5744 5743 5742 5741 5740 5739 5738 5737 5738 5738 5738 5738 5738 5737 5738 5738 5738 5737 5737 5737 5738 5739 5741 5743 5745 5746 5748 5749 5752 5753 5755 5756 5758 5759 5761 5762 5764 5765 5767 5769 5771 5771 5772 5772 5773 5775 5776 5776 5777 5777 5777 5776 5775 5776 5778 5780 5781 5781 5780 5780 5780 5779 5780 5781 5781 5781 5781 5782 5782 5783 5783 5784 5784 5784 5784 5785 5786
5753 5753 5753 5752 5752 5752 5751 5750 5749 5748 5746 5745 5744 5743 5743 5742 5741 5740 5739 5739 5739 5739 5740 5740 5739 5740 5741 5740 5741 5741 5741 5742 5743 5745 5746 5747 5748 5750 5751 5753 5755 5756 5757 5759 5761 5762 5763 5764 5765 5767 5770 5771 5771 5772 5772 5773 5775 5775 5775 5776 5777 5776 5776 5777 5778 5779 5780 5780 5781 5780 5779 5778 5778 5779 5780 5780 5780 5780 5780 5780 5781 5782 5783 5784 5783 5783 5783 5784
5753 5753 5752 5752 5752 5752 5751 5750 5749 5748 5747 5746 5745 5744 5744 5743 5742 5741 5741 5741 5741 5741 5741 5741 5741 5742 5743 5743 5744 5745 5744 5745 5746 5747 5748 5749 5750 5752 5753 5755 5757 5759 5759 5760 5762 5764 5764 5764 5766 5768 5770 5771 5772 5772 5773 5774 5775 5775 5775 5776 5777 5777 5778 5779 5779 5780 5780 5780 5780 5779 5778 5777 5778 5778 5778 5778 5778 5778 5779 5779 5780 5781 5782 5783 5783 5782 5783 5783
5752 5752 5752 5752 5751 5751 5751 5750 5749 5749 5748 5747 5746 5745 5744 5744 5743 5742 5742 5742 5742 5743 5743 5743 5743 5743 5744 5745 5746 5747 5747 5748 5750 5750 5750 5752 5753 5754 5756 5757 5759 5761 5762 5762 5764 5764 5763 5764 5767 5769 5770 5771 5773 5774 5774 5775 5774 5774 5775 5777 5777 5777 5777 5778 5779 5779 5779 5779 5779 5778 5777 5777 5778 5779 5777 5776 5777 5777 5778 5780 5780 5781 5781 5782 5782 5782 5782 5783
5751 5751 5751 5751 5751 5751 5751 5750 5749 5749 5749 5748 5747 5747 5746 5746 5745 5744 5743 5743 5743 5744 5744 5744 5745 5745 5746 5747 5748 5749 5749 5750 5752 5752 5752 5753 5755 5756 5758 5759 5761 5762 5763 5764 5765 5764 5763 5764 5767 5769 5770 5771 5773 5775 5775 5775 5774 5775 5777 5777 5777 5777 5777 5778 5779 5779 5779 5779 5778 5778 5778 5777 5778 5778 5777 5777 5777 5777 5778 5780 5779 5780 5780 5780 5781 5781 5782 5783
5750 5750 5750 5750 5750 5750 5750 5750 5749 5749 5749 5748 5748 5748 5748 5747 5746 5745 5744 5743 5744 5744 5745 5745 5746 5747 5747 5748 5749 5750 5751 5752 5753 5753 5754 5755 5756 5758 5760 5761 5761 5762 5763 5765 5766 5766 5765 5766 5767 5769 5770 5771 5772 5773 5774 5775 5775 5776 5777 5777 5777 5777 5777 5778 5778 5778 5779 5779 5779 5778 5778 5777 5777 5778 5777 5776 5777 5778 5779 5779 5779 5778 5779 5780 5780 5780 5781 5782
5749 5749 5749 5750 5750 5749 5750 5750 5749 5749 5749 5749 5749 5749 5748 5747 5747 5746 5745 5745 5745 5745 5746 5746 5747 5748 5749 5749 5750 5751 5752 5754 5754 5755 5756 5757 5759 5761 5761 5762 5762 5762 5763 5764 5766 5767 5767 5767 5768 5769 5770 5771 5772 5773 5774 5775 5775 5775 5776 5777 5778 5778 5777 5778 5778 5779 5779 5778 5778 5778 5777 5777 5777 5777 5777 5776 5776 5777 5778 5779 5779 5779 5780 5780 5780 5780 5780 5780
5747 5748 5748 5749 5749 5749 5749 5749 5749 5748 5748 5749 5749 5749 5749 5749 5747 5746 5746 5746 5746 5746 5747 5748 5748 5749 5750 5750 5751 5752 5753 5755 5755 5756 5757 5758 5760 5762 5762 5763 5763 5763 5764 5765 5766 5768 5768 5768 5770 5770 5771 5772 5773 5773 5774 5775 5775 5775 5776 5777 5778 5778 5778 5778 5778 5778 5778 5777 5778 5779 5778 5778 5778 5777 5777 5776 5775 5775 5775 5776 5778 5779 5780 5780 5779 5779 5778 5778
5746 5747 5747 5747 5748 5748 5748 5748 5748 5748 5748 5749 5749 5749 5749 5749 5749 5748 5747 5748 5748 5748 5748 5749 5749 5750 5751 5751 5752 5754 5755 5756 5757 5758 5759 5760 5761 5763 5764 5765 5764 5764 5765 5766 5767 5769 5769 5769 5770 5771 5772 5772 5772 5773 5774 5775 5776 5776 5776 5777 5777 5778 5778 5778 5778 5778 5778 5777 5777 5778 5778 5777 5778 5778 5777 5776 5775 5774 5773 5773 5775 5777 5778 5779 5779 5778 5778 5778
5744 5745 5745 5746 5746 5747 5747 5748 5748 5748 5748 5749 5749 5749 5749 5749 5749 5749 5749 5749 5749 5750 5749 5750 5750 5750 5751 5752 5753 5754 5755 5757 5758 5759 5760 5761 5762 5763 5764 5765 5765 5766 5767 5768 5769 5770 5770 5770 5771 5771 5772 5773 5773 5773 5774 5775 5776 5776 5776 5777 5777 5777 5777 5777 5777 5777 5778 5777 5777 5778 5778 5777 5778 5778 5778 5778 5778 5777 5774 5773 5774 5775 5776 5777 5777 5778 5778 5778
5743 5743 5743 5744 5745 5746 5746 5747 5747 5748 5748 5749 5749 5750 5749 5749 5749 5750 5750 5750 5749 5750 5750 5750 5751 5752 5752 5753 5754 5755 5755 5757 5759 5760 5761 5762 5763 5763 5764 5765 5766 5768 5769 5769 5770 5770 5770 5771 5771 5772 5773 5773 5773 5774 5774 5775 5776 5776 5776 5777 5777 5777 5777 5777 5777 5777 5778 5777 5776 5777 5778 5777 5777 5778 5778 5778 5778 5778 5776 5774 5775 5775 5775 5776 5776 5777 5777 5777
5741 5741 5741 5742 5744 5744 5745 5746 5747 5747 5748 5748 5749 5750 5750 5750 5750 5751 5751 5750 5750 5751 5751 5751 5752 5753 5753 5754 5755 5755 5756 5757 5759 5761 5762 5763 5764 5764 5765 5766 5767 5768 5769 5769 5769 5769 5770 5771 5771 5772 5772 5773 5773 5773 5774 5775 5775 5776 5776 5776 5777 5777 5777 5777 5778 5778 5778 5778 5776 5776 5777 5777 5777 5778 5778 5778 5778 5778 5777 5776 5776 5775 5774 5774 5775 5776 5777 5777
5739 5739 5739 5741 5743 5743 5744 5745 5746 5746 5747 5748 5748 5749 5750 5750 5751 5751 5751 5751 5750 5751 5751 5751 5752 5753 5754 5755 5755 5755 5756 5756 5758 5760 5761 5762 5764 5765 5765 5767 5767 5767 5768 5769 5768 5769 5770 5771 5771 5771 5772 5772 5772 5773 5774 5774 5775 5775 5775 5775 5775 5776 5776 5777 5778 5778 5777 5777 5776 5777 5777 5776 5776 5776 5777 5777 5777 5776 5776 5776 5777 5776 5774 5773 5773 5773 5775 5775
5737 5737 5738 5740 5741 5741 5742 5744 5745 5745 5746 5747 5748 5748 5749 5750 5750 5750 5750 5750 5750 5751 5751 5752 5752 5753 5754 5755 5755 5755 5757 5757 5758 5760 5761 5762 5763 5765 5765 5767 5767 5767 5768 5768 5768 5769 5770 5771 5770 5771 5772 5772 5772 5773 5774 5774 5774 5774 5775 5775 5775 5775 5776 5777 5777 5777 5777 5777 5776 5776 5776 5776 5776 5775 5775 5775 5774 5774 5774 5775 5775 5775 5774 5773 5772 5772 5772 5773
5735 5735 5737 5738 5739 5740 5740 5742 5744 5745 5746 5747 5747 5748 5749 5750 5749 5748 5749 5750 5750 5750 5751 5752 5753 5753 5753 5755 5756 5756 5757 5758 5758 5759 5761 5761 5762 5764 5765 5766 5767 5768 5767 5767 5767 5769 5769 5769 5770 5770 5771 5772 5772 5773 5773 5774 5774 5774 5775 5775 5775 5775 5776 5776 5776 5776 5776 5776 5776 5776 5775 5776 5777 5776 5776 5775 5774 5773 5774 5774 5774 5773 5773 5773 5772 5771 5771 5771
5733 5734 5735 5736 5737 5738 5739 5741 5743 5744 5745 5746 5746 5747 5749 5749 5748 5748 5749 5750 5750 5750 5751 5752 5753 5754 5754 5754 5755 5756 5757 5758 5758 5759 5760 5760 5760 5762 5763 5765 5766 5766 5765 5766 5767 5768 5768 5768 5769 5769 5770 5771 5771 5772 5773 5773 5773 5774 5775 5775 5775 5775 5775 5775 5775 5775 5775 5775 5775 5776 5775 5775 5776 5776 5775 5775 5775 5774 5773 5773 5773 5771 5772 5772 5770 5769 5770 5771
5732 5732 5733 5735 5735 5735 5737 5739 5741 5742 5743 5743 5744 5746 5748 5748 5747 5748 5749 5750 5750 5750 5751 5751 5752 5753 5753 5753 5754 5755 5756 5756 5757 5757 5758 5758 5758 5760 5761 5763 5764 5763 5764 5765 5766 5766 5766 5767 5767 5768 5769 5770 5771 5771 5772 5772 5773 5774 5774 5775 5775 5775 5774 5774 5774 5775 5774 5774 5774 5774 5774 5774 5774 5775 5774 5774 5774 5774 5773 5773 5772 5770 5769 5770 5769 5768 5770 5770
5730 5731 5731 5733 5733 5734 5735 5738 5740 5741 5741 5742 5743 5745 5746 5747 5747 5747 5748 5749 5749 5750 5750 5751 5751 5751 5751 5752 5752 5753 5753 5754 5754 5755 5755 5756 5757 5759 5760 5761 5762 5761 5761 5763 5763 5764 5765 5765 5766 5767 5768 5769 5770 5771 5771 5772 5773 5773 5774 5774 5774 5774 5773 5773 5774 5774 5773 5773 5773 5773 5773 5773 5773 5773 5774 5774 5773 5773 5772 5772 5771 5770 5768 5767 5767 5767 5768 5769
5729 5729 5729 5730 5732 5733 5735 5737 5739 5739 5740 5741 5742 5743 5745 5745 5746 5746 5747 5747 5748 5749 5749 5749 5749 5749 5750 5751 5752 5752 5752 5753 5754 5755 5756 5757 5758 5759 5760 5760 5759 5759 5760 5760 5761 5762 5764 5764 5764 5765 5767 5768 5769 5770 5771 5772 5772 5772 5773 5773 5773 5773 5772 5772 5773 5772 5772 5772 5772 5771 5772 5772 5771 5770 5771 5772 5771 5771 5771 5770 5770 5770 5769 5767 5767 5767 5766 5767
5726 5726 5727 5729 5730 5731 5733 5735 5736 5737 5738 5740 5741 5742 5743 5744 5744 5745 5745 5745 5746 5747 5747 5748 5747 5746 5747 5748 5750 5751 5751 5752 5754 5755 5756 5758 5758 5759 5760 5758 5757 5759 5760 5760 5761 5762 5763 5763 5762 5763 5765 5766 5767 5768 5770 5771 5771 5771 5772 5772 5771 5772 5771 5771 5771 5770 5771 5771 5771 5770 5770 5770 5769 5769 5769 5769 5769 5769 5769 5768 5768 5768 5769 5768 5768 5768 5766 5765
5723 5724 5726 5728 5728 5729 5731 5733 5734 5735 5736 5738 5739 5740 5742 5742 5742 5743 5743 5744 5745 5745 5745 5746 5746 5745 5745 5747 5749 5750 5750 5751 5752 5753 5754 5756 5757 5758 5759 5757 5756 5757 5759 5760 5762 5762 5762 5762 5762 5762 5763 5764 5766 5767 5768 5769 5769 5768 5769 5770 5771 5771 5771 5770 5769 5768 5768 5769 5769 5768 5768 5768 5768 5768 5768 5767 5767 5768 5767 5766 5766 5766 5767 5767 5766 5765 5765 5763
5722 5723 5725 5726 5726 5728 5729 5730 5732 5733 5735 5736 5737 5738 5740 5740 5740 5741 5742 5742 5743 5744 5744 5744 5745 5745 5745 5747 5749 5749 5750 5750 5751 5752 5753 5755 5756 5757 5757 5757 5756 5756 5758 5760 5761 5761 5761 5761 5762 5762 5763 5763 5764 5765 5766 5766 5766 5766 5767 5768 5769 5769 5768 5767 5766 5765 5765 5766 5767 5766 5766 5767 5767 5767 5766 5765 5765 5766 5766 5765 5764 5763 5764 5763 5762 5761 5761 5761
5720 5720 5721 5722 5724 5726 5727 5728 5729 5732 5733 5735 5736 5737 5738 5738 5738 5739 5741 5741 5742 5743 5744 5744 5745 5745 5746 5747 5749 5750 5750 5750 5750 5751 5752 5753 5755 5755 5755 5756 5756 5756 5757 5758 5759 5759 5759 5760 5760 5761 5762 5762 5763 5763 5763 5763 5765 5766 5766 5765 5765 5765 5765 5764 5763 5763 5763 5764 5765 5765 5765 5765 5766 5765 5764 5763 5763 5763 5763 5763 5762 5761 5761 5761 5759 5758 5757 5757
5717 5717 5718 5720 5722 5724 5725 5726 5727 5728 5730 5732 5735 5735 5735 5736 5736 5737 5739 5740 5740 5741 5742 5743 5744 5745 5745 5747 5748 5749 5750 5751 5750 5751 5751 5752 5753 5754 5754 5754 5754 5755 5755 5756 5757 5757 5758 5758 5758 5759 5760 5760 5761 5761 5761 5762 5763 5763 5763 5764 5765 5764 5763 5763 5762 5762 5763 5764 5764 5763 5763 5763 5763 5763 5763 5762 5762 5762 5761 5760 5759 5759 5759 5759 5758 5757 5755 5754